Other Public Products
Issued by NWS Charleston, SC

Current Version | Previous Version | Graphics & Text | Print | Product List | Glossary On
Versions: 1 2 3 4 5 6 7 8 9 10 11 12 13 14 15 16 17 18 19 20 21 22 23 24 25 26 27 28 29 30 31 32 33 34 35 36 37 38 39 40 41 42 43 44 45 46 47 48 49 50
846
FPUS82 KCHS 032227
OPUCHS

TEST...KCHS/KSAV Gateway Observations...TEST
National Weather Service Charleston SC
500 PM EST SAT DEC 03 2016

NOTE: "fair" indicates few or no clouds below 12,000 feet with no
significant weather and/or obstructions to visibility.

SCZ050-WAZ558-NCZ071-TXZ119-213-PAZ071-DCZ001-FLZ074-172-MI076-
NYZ176-178-MAZ016-IL014-TNZ027-NJZ106-GAZ044-MD014-032300-
...Gateway Observations for Charleston International...

CITY           SKY/WX    TMP DP  RH WIND       PRES   REMARKS
Chas Airport   MOCLDY    56  36  47 NE5       30.22S
Seattle        CLOUDY    48  41  76 S13       30.26F
Charlotte      CLOUDY    51  30  44 CALM      30.23S
Dallas DFW     DRIZZLE   50  47  89 NE7       29.99R FOG
Dallas Love    CLOUDY    51  47  86 NE5       30.00R
Philladelphia  CLOUDY    48  31  51 NW12      30.16R
Wash National  MOCLDY    46  29  51 NW18G24   30.23F
Baltimore      MOCLDY    44  30  57 W8        30.20F
Miami          PTCLDY    76  64  66 NE10      30.04S
Detroit        CLOUDY    37  29  72 W8        30.32R WCI  31
Newark         MOCLDY    46  26  45 NW17G28   30.10R
Laguardia      MOCLDY    47  29  49 NW15G30   30.08R
J F K          PTCLDY    46  26  45 NW20      30.09R
Boston Logan   PTCLDY    41  25  53 NW16G25   29.95R
Ft. Lauderdale MOCLDY    75  62  64 NE14      30.04R
Chicago O`Hare MOCLDY    33  23  66 W6        30.32F WCI  28
Chicago Midway MOCLDY    33  22  63 W5        30.33F WCI  29
Houston Bush   CLOUDY    54  52  93 N10       29.87F
Houston Hobby  CLOUDY    57  54  89 N12       29.86R
Nashville      CLOUDY    44  31  60 NE5       30.28F
Atlanta        LGT RAIN  54  33  45 N9        30.22R

$$

GAZ044-118-TXZ119-213-NCZ071-DCZ001-MDZ014-506-PAZ021-071-NJZ106-
NYZ176-178-MAZ106-OHZ011-021-055-MIZ076-KYZ091-ILZ014-INZ047-
MNZ060-032300-
...Gateway Observations for Savannah International...

CITY           SKY/WX    TMP DP  RH WIND       PRES   REMARKS
Savannah Arpt  CLOUDY    58  38  47 E9        30.20F
Atlanta        LGT RAIN  54  33  45 N9        30.22R
Charlotte      CLOUDY    51  30  44 CALM      30.23S
Dallas DFW     DRIZZLE   50  47  89 NE7       29.99R FOG
Houston Bush   CLOUDY    54  52  93 N10       29.87F
Wash National  MOCLDY    46  29  51 NW18G24   30.23F
Wash Dulles    MOCLDY    42  28  57 NW10      30.25S
Baltimore      MOCLDY    44  30  57 W8        30.20F
Philadelphia   CLOUDY    48  31  51 NW12      30.16R
Newark         MOCLDY    46  26  45 NW17G28   30.10R
Laguardia      MOCLDY    47  29  49 NW15G30   30.08R
J F K          PTCLDY    46  26  45 NW20      30.09R
Boston         PTCLDY    41  25  53 NW16G25   29.95R
Pittsburg      CLOUDY    38  29  70 W6        30.28S WCI  33
Akron          CLOUDY    37  26  64 W8        30.30R WCI  31
Cleveland      CLOUDY    39  28  64 SW7       30.33R WCI  34
Cincinnati     CLOUDY    40  29  64 CALM      30.30S
Columbus       CLOUDY    38  30  73 CALM      30.31S
Detroit        CLOUDY    37  29  72 W8        30.32R WCI  31
Chicago O`Hare MOCLDY    33  23  66 W6        30.32F WCI  28
Minneapolis    CLOUDY    31  21  66 SE8       30.23F WCI  23
Indianapolis   CLOUDY    37  28  70 N7        30.31S WCI  32

$$




USA.gov is the U.S. government's official web portal to all federal, state and local government web resources and services.